Location: *
(48.4530°S, 170.9424°W)
Time: 19:49:45
(UTC+00:00)

Daily predictions for brighter satellites

Satellite Brightness Start Highest point End
(mag) Time Altitude Azimuth Time Altitude Azimuth Time Altitude Azimuth
CZ-4C R/B 4.3 13:25:54 31° E 13:25:54 31° E 13:30:19 10° SE
CENTAUR R/B 4.4 13:44:15 28° ENE 13:44:15 28° ENE 13:49:44 10° ESE
SL-16 R/B 4.4 13:52:02 10° SE 13:56:53 23° E 13:58:08 22° ENE
USA 234 4.1 14:05:30 10° ESE 14:10:50 44° SSE 14:10:50 44° SSE
H-2A R/B 4.1 14:15:19 23° S 14:15:19 23° S 14:17:36 10° S
Cosmos 2263 Rocket 3.8 14:34:57 28° S 14:34:57 28° S 14:37:43 10° SSE
Cosmos 1655 Rocket 4.4 14:44:13 10° S 14:50:37 63° ESE 14:56:53 10° NNE
Cosmos 1844 4.3 14:52:46 53° ENE 14:52:50 53° ENE 14:58:26 10° SE
Cosmos 2266 Rocket 4.3 14:47:51 10° S 14:53:04 60° S 14:53:04 60° S
CZ-2C R/B 3.4 14:49:55 10° SSE 14:53:59 49° S 14:53:59 49° S
ARGOS 4.0 14:52:56 10° NE 14:58:06 48° ESE 15:03:20 10° S
ARIANE 5 R/B 3.1 14:57:21 10° NNE 15:02:23 56° ESE 15:07:25 10° S
BREEZE-M DEB (TANK) 4.1 15:05:15 48° ESE 15:05:15 48° ESE 15:10:46 10° ESE
Meteor 1-14 Rocket 4.5 15:08:51 62° SSW 15:08:51 62° SSW 15:13:57 10° S
Sich 1 4.1 15:08:53 45° ESE 15:08:53 45° ESE 15:12:33 10° SSE
CZ-4C R/B 2.9 15:11:01 64° W 15:12:06 73° SW 15:19:02 10° SE
Cosmos 2227 Rocket 4.2 15:13:35 15° SSW 15:13:35 15° SSW 15:15:57 10° S
Cosmos 1743 Rocket 4.3 15:14:18 52° ESE 15:14:18 52° ESE 15:18:14 10° SSE
UNK 4.1 15:11:12 10° SSE 15:15:29 62° ESE 15:15:29 62° ESE
Cosmos 1844 Rocket 2.5 15:19:02 88° W 15:19:04 88° WSW 15:24:46 10° SSE
NOAA 12 4.5 15:18:28 10° NNE 15:23:40 62° ESE 15:28:56 10° S
Cosmos 1125 Rocket 4.5 15:27:10 36° SSW 15:27:10 36° SSW 15:30:56 10° SSE
Cosmos 967 Rocket 4.3 15:25:52 65° NW 15:26:52 85° SW 15:33:11 10° SE
Cosmos 220 Rocket 4.5 15:27:46 56° ENE 15:27:46 56° ENE 15:31:22 10° NE
Lacrosse 5 rocket 4.0 15:32:47 12° NNE 15:32:47 12° NNE 15:33:05 10° NNE
ATLAS CENTAUR R/B 2.4 15:31:16 40° S 15:31:16 40° S 15:34:25 10° SSE
CENTAUR R/B 2.8 15:31:27 46° NW 15:34:07 84° SW 15:40:51 10° SE
COSMOS 2455 4.3 15:33:57 22° SSW 15:34:13 22° SSW 15:38:52 10° SSE
SeaSat 1 2.5 15:29:51 10° NE 15:34:47 77° ESE 15:38:38 17° SSW
SL-06 R/B (2) 4.5 15:33:27 41° SW 15:35:12 86° NW 15:44:32 10° NE
SL-16 R/B 2.4 15:34:47 10° SSE 15:41:01 71° WSW 15:43:14 42° NW
CZ-2D R/B 3.8 15:36:54 10° NNE 15:41:15 72° ESE 15:45:40 10° S
BREEZE-M DEB (TANK) 4.2 15:36:24 32° WSW 15:41:23 66° NNW 15:45:25 10° NE
IRS-1C 4.0 15:36:35 10° N 15:41:55 66° WNW 15:47:20 10° SSW
BREEZE-M DEB (TANK) 2.9 15:43:20 68° NE 15:43:20 68° NE 15:48:35 10° ENE
Meteor 1-11 Rocket 3.6 15:41:39 44° NNW 15:43:29 76° WSW 15:49:20 10° S
DEBRIS 2.8 15:44:47 73° SE 15:44:47 73° SE 15:50:27 10° E
SL-19 R/B 4.0 15:39:46 10° NNE 15:45:05 82° WNW 15:50:41 10° SSW
Cosmos 1862 Rocket 4.5 15:44:39 10° S 15:49:07 51° ESE 15:53:31 10° NNE
Cosmos 2150 Rocket 4.4 15:51:07 44° WSW 15:51:13 44° WSW 15:56:30 10° SSE
Cosmos 2298 Rocket 4.5 15:51:47 42° WSW 15:51:47 42° WSW 15:56:55 10° SSE
H-2A R/B 4.1 15:55:54 15° SW 15:55:54 15° SW 15:56:51 10° SSW
USA 234 4.1 15:47:53 10° ESE 15:54:04 44° S 15:58:10 21° SW
SJ-12 3.8 15:50:46 10° NNE 15:54:47 87° ESE 15:58:52 10° SSW
SL-08 RB Rocket 3.5 15:52:10 10° N 15:56:43 79° WNW 16:01:19 10° SSW
Cosmos 1833 Rocket 3.3 15:52:10 10° SSW 15:57:49 58° ESE 16:03:24 10° NE
Meteor 2-9 Rocket 4.2 15:56:11 18° NNW 16:00:34 74° WSW 16:06:33 10° S
NOSS 3-2 (C) 4.5 15:55:35 10° NNW 16:04:28 68° NE 16:12:10 10° SE
IRS-P3 4.2 16:00:48 10° N 16:06:02 52° W 16:11:20 10° SSW
BREEZE-M R/B 2.9 16:06:26 57° NNE 16:06:26 57° NNE 16:09:14 10° ENE
Cosmos 1553 Rocket 4.0 16:04:17 10° N 16:10:23 80° E 16:16:34 10° S
Nadezhda 2 Rocket 4.4 16:04:46 10° SSW 16:11:11 77° W 16:17:26 10° N
Cosmos 2082 Rocket 4.1 16:06:48 10° SSW 16:11:41 28° SE 16:16:31 10° ENE
FengYun 1-2 T 4.4 16:06:40 10° N 16:11:57 46° W 16:17:18 10° SSW
Cosmos 1805 Rocket 4.2 16:17:14 34° WSW 16:17:14 34° WSW 16:21:13 10° S
Cosmos 2263 Rocket 4.1 16:16:38 13° SW 16:17:35 14° SSW 16:20:25 10° S
Cosmos 1400 Rocket 2.7 16:13:42 10° S 16:17:37 80° ESE 16:21:26 10° NNE
Cosmos 2228 Rocket 3.1 16:13:44 10° SSW 16:18:19 60° W 16:22:49 10° N
Cosmos 1975 2.7 16:15:01 10° N 16:19:00 88° W 16:23:05 10° S
Cosmos 2278 Rocket 4.1 16:15:09 10° NNE 16:20:01 30° ENE 16:24:56 10° SE
Cosmos 1666 Rocket 3.4 16:16:11 10° N 16:20:35 85° W 16:25:02 10° S
Cosmos 1707 Rocket 3.5 16:16:08 10° SSW 16:20:37 65° W 16:24:59 10° N
BREEZE M DEB (TANK) 3.0 16:19:35 30° NNW 16:20:51 51° NNE 16:26:59 10° ESE
Cosmos 2251 Rocket 4.2 16:15:44 10° SSW 16:21:07 57° ESE 16:26:24 10° NE
EXPRESS MD2 3.4 16:22:44 28° NNE 16:22:44 28° NNE 16:24:10 10° NE
BREEZE-M DEB (TANK) 2.5 16:28:07 42° WSW 16:28:56 88° S 16:31:20 10° ENE
CZ-2D R/B 3.1 16:26:50 10° N 16:30:31 64° WNW 16:34:16 10° SSW
SL-14 R/B 3.3 16:28:42 10° SSW 16:32:31 51° W 16:36:19 10° N
Cosmos 1340 2.5 16:30:36 10° N 16:34:07 82° E 16:37:41 10° SSE
CZ-2C R/B 4.3 16:31:35 10° SSW 16:35:02 17° SW 16:35:28 17° WSW
ARGOS 3.9 16:33:55 10° NNW 16:38:33 29° W 16:43:14 10° SW
Timation 2 Rocket 4.2 16:35:57 19° WNW 16:40:00 45° SW 16:45:50 10° SSE
ARIANE 5 R/B 3.6 16:37:46 10° NW 16:41:47 23° W 16:45:48 10° SW
Meteor 1-21 4.4 16:36:31 10° SSW 16:42:14 55° W 16:47:51 10° N
NOSS 3-3 (A) 4.2 16:36:48 10° SW 16:42:48 43° WNW 16:48:00 10° N
NOSS 3-2 (A) 4.3 16:36:28 16° WNW 16:43:32 57° SW 16:50:54 10° SE
Sich 1 4.4 16:45:40 20° WSW 16:46:00 20° WSW 16:49:17 10° SSW
NOSS 3-3 (C) 4.2 16:43:32 10° SW 16:49:26 40° WNW 16:54:31 10° N
Okean 3 3.6 16:46:45 10° SSW 16:50:55 51° W 16:55:04 10° N
Spot 4 Rocket 4.4 16:47:37 10° N 16:52:30 42° W 16:57:28 10° SSW
Helios 1B rocket 2.6 16:48:50 10° NNE 16:52:48 74° ESE 16:56:48 10° S
CORIOLIS 4.1 16:48:02 10° NNE 16:53:30 80° WNW 16:59:02 10° SSW
Cosmos 1745 Rocket 4.0 16:47:21 10° SSW 16:53:45 72° W 17:00:01 10° N
Meteor 1-31 Rocket 3.2 16:51:24 10° NNE 16:55:07 63° ESE 16:58:52 10° S
DMSP B5D2-2 4.2 16:50:50 10° S 16:56:05 59° WSW 17:01:16 10° NNW
Cosmos 1633 Rocket 3.4 16:55:09 10° NNW 16:59:23 42° WSW 17:03:41 10° S
Cosmos 2285 Rocket 4.4 16:54:11 10° SW 17:00:12 41° WNW 17:06:07 10° N
SAR-Lupe-2 4.4 16:57:10 10° NNE 17:00:41 55° ESE 17:04:17 10° S
Cosmos 1356 Rocket 3.5 16:56:58 10° SSW 17:01:10 56° W 17:05:15 10° N
CZ-4C R/B 3.8 16:56:09 14° WSW 17:01:39 30° SSW 17:07:14 10° SE
USA 238 DEB 4.1 16:54:14 10° NW 17:02:08 83° NE 17:09:31 10° SE
USA 238 4.1 16:54:21 10° NW 17:02:16 83° NE 17:09:38 10° SE
Cosmos 1844 Rocket 4.1 17:00:43 14° W 17:03:47 21° SW 17:08:01 10° S
CZ-2C R/B 2.5 17:01:32 10° N 17:05:09 75° WNW 17:08:47 10° SSW
Cosmos 1607 3.9 16:59:54 10° SW 17:06:03 84° NW 17:12:16 10° NNE
ATLAS CENTAUR R/B 3.5 17:06:24 10° WSW 17:08:53 15° SSW 17:11:29 10° SSE
SL-24 DEB 4.2 17:06:03 10° N 17:10:39 62° W 17:15:18 10° S
COSMOS 2406 3.9 17:05:41 10° SSW 17:11:21 58° ESE 17:16:58 10° NE
Cosmos 1140 Rocket 4.0 17:07:51 10° SW 17:12:37 38° WNW 17:17:22 10° N
SeaSat 1 3.8 17:09:24 10° NNW 17:12:44 18° WNW 17:16:06 10° WSW
YAOGAN 11 4.1 17:09:46 10° SSE 17:14:09 90° WSW 17:18:32 10° NNW
Cosmos 1703 Rocket 3.6 17:11:38 10° SSW 17:16:07 64° W 17:20:30 10° N
Cosmos 1818 3.8 17:13:49 10° SW 17:19:01 50° WNW 17:24:11 10° NNE
COSMO-SKYMED 1 3.7 17:15:11 10° SSE 17:19:31 50° E 17:23:47 10° N
Cosmos 1943 Rocket 3.2 17:16:48 10° N 17:22:15 52° ENE 17:27:42 10° SE
S3M 4.2 17:16:44 10° NNW 17:23:01 57° WSW 17:29:26 10° S
Cosmos 1470 2.7 17:19:13 10° N 17:23:02 88° W 17:26:54 10° S
SL-16 R/B 4.0 17:19:54 10° SSW 17:23:33 16° SW 17:27:12 10° W
Cosmos 407 Rocket 3.8 17:18:46 10° SW 17:23:43 44° WNW 17:28:39 10° N
CENTAUR R/B 3.6 17:18:55 10° W 17:25:32 32° SSW 17:31:06 10° SE
Cosmos 1900 4.5 17:24:14 10° NNW 17:29:05 81° NE 17:34:00 10° SE
Meteor 1-4 Rocket 2.3 17:26:25 10° S 17:29:40 84° ESE 17:32:53 10° NNE
SMAP 3.7 17:25:23 10° NNW 17:29:42 36° W 17:34:05 10° SSW
GEOS 3 Rocket 4.0 17:26:31 10° SSE 17:31:34 50° SW 17:36:39 10° WNW
Cosmos 1408 3.8 17:32:04 10° S 17:35:07 40° ESE 17:38:09 10° NNE
ASTEX 1 3.5 17:31:21 10° S 17:36:13 58° W 17:41:04 10° NNW
USA 234 3.6 17:30:02 10° ENE 17:36:36 72° SSE 17:43:13 10° SW
